CAPE
0 0 0 0 0 0 0 0 0 0 0 0 0 0 0 259 547 910 1068 1061 1455 1241 1297 1618 2067 2153 2342 2079 1884 1614 1545 1247 1120 777 344 252 100 14 21 10 10 31 17 0 47 13 10 30 16
0 0 0 0 0 0 0 0 0 0 0 0 0 0 0 571 867 1381 1193 759 1426 1241 1030 1240 2032 2180 2152 2058 1786 1636 1435 1454 1129 1178 786 469 46 4 0 4 14 35 14 40 146 28 39 43 9
0 0 0 0 0 0 0 0 0 0 0 0 0 0 0 506 1066 1163 936 718 1126 1084 938 1144 1784 2057 2130 2041 1895 1765 1538 1346 1234 1280 1148 725 125 16 0 1 11 56 92 92 47 59 86 27 6
0 0 0 0 0 0 0 0 0 0 0 0 0 0 40 509 705 1028 799 718 778 916 1030 1169 1534 1761 1956 1979 1898 1799 1657 1547 1414 1432 1238 707 319 11 0 0 17 37 20 65 48 36 38 44 4
0 0 0 0 0 0 0 0 0 0 0 0 0 0 50 674 1034 1020 861 795 738 792 1161 1100 1563 1663 1844 1884 1830 1739 1680 1628 1560 1534 935 968 420 17 13 0 25 33 15 52 41 35 37 22 0
0 0 0 0 0 0 0 0 0 0 0 0 0 0 0 586 844 1032 1009 913 817 1316 1172 1039 1377 1520 1532 1723 1698 1584 1482 1566 1539 1146 1184 986 543 179 16 4 20 27 31 41 27 26 46 23 0
0 0 0 0 0 0 0 0 0 0 0 0 0 0 37 443 732 790 923 984 937 1558 1498 1116 1053 1097 998 1060 1270 1256 1177 1375 1238 987 822 589 329 84 13 15 18 24 29 31 57 60 67 16 4
0 0 0 0 0 0 0 0 0 0 0 0 0 0 0 235 694 727 819 1034 998 1241 1278 1261 1010 898 735 618 646 608 792 920 886 658 181 0 0 0 0 3 16 22 21 37 33 73 58 28 40
0 0 0 0 0 0 0 0 0 0 0 0 0 0 0 556 585 645 751 980 1060 1010 1336 1252 1156 934 676 506 441 437 474 530 410 190 0 0 0 0 0 0 6 26 16 12 39 70 51 51 31
0 0 0 0 0 0 0 0 0 0 0 0 0 0 318 412 395 394 678 931 1123 1049 965 1358 1352 1209 918 704 321 292 239 364 214 95 2 1 1 0 0 0 0 3 13 7 53 56 40 0 2
0 0 0 0 0 0 0 0 0 0 0 0 0 0 70 259 309 146 93 497 944 1074 903 806 518 1216 962 714 497 254 251 273 151 85 17 5 2 0 0 0 0 0 2 4 25 12 0 12 6
0 0 0 0 0 0 0 0 0 0 0 0 0 0 0 17 31 0 0 0 76 787 1076 1075 776 896 979 802 534 516 552 450 111 141 35 23 2 0 0 0 0 0 0 0 4 6 0 8 2
0 0 0 0 0 0 0 0 0 0 0 0 0 0 0 0 0 0 0 0 0 202 714 865 959 983 902 818 756 547 531 427 357 281 42 43 32 0 0 0 0 0 0 0 0 6 6 8 3
0 0 0 0 0 0 0 0 0 0 0 0 0 0 0 0 0 0 0 0 0 6 366 861 1102 1231 1097 1042 857 815 638 600 457 304 202 85 57 0 0 0 0 0 0 0 0 5 3 1 11
0 0 0 0 0 0 0 0 0 0 0 0 0 0 0 0 0 0 0 0 0 0 0 0 165 846 991 951 1003 832 857 743 573 488 203 94 41 12 0 0 0 0 0 0 0 2 3 2 7
0 0 0 0 0 0 0 0 0 0 0 0 0 0 0 0 0 0 0 0 0 0 0 0 0 0 0 111 811 916 769 730 667 628 350 231 123 35 5 14 8 0 4 0 0 0 0 0 4
0 0 0 0 0 0 0 0 0 0 0 0 0 0 0 0 0 0 0 0 0 0 0 0 0 0 0 0 438 349 428 510 587 623 428 301 192 171 46 88 43 99 10 0 2 0 0 0 7
0 0 0 0 0 0 0 0 0 0 0 0 0 0 0 0 0 0 0 0 0 0 0 0 0 0 0 0 70 90 39 82 461 639 549 336 189 102 193 57 84 25 7 16 8 0 0 0 8
0 0 0 0 0 0 0 0 0 0 0 0 0 0 0 0 0 0 0 0 0 0 0 0 0 0 0 0 10 0 0 3 374 744 354 694 260 148 134 7 58 31 32 19 23 4 2 0 0
0 0 0 0 0 0 0 0 0 0 0 0 0 0 0 0 0 0 0 0 0 0 0 0 0 0 0 0 0 0 0 2 39 85 428 205 211 187 91 42 25 83 15 47 24 2 26 16 14
0 0 0 0 0 0 0 0 0 0 0 0 0 0 0 0 0 0 0 0 0 0 0 0 0 0 0 0 0 0 0 2 4 4 247 195 33 105 4 36 184 23 7 3 11 10 5 26 10
0 0 0 0 0 0 0 0 0 0 0 0 0 0 0 0 0 0 0 0 0 0 0 0 0 0 0 0 0 0 0 0 0 0 8 9 16 45 26 70 47 17 7 1 1 4 6 12 7
0 10 2 1 0 0 0 0 0 0 0 0 0 0 0 0 0 0 0 0 0 0 0 0 0 0 0 0 0 0 0 0 0 1 2 2 8 9 6 106 32 4 5 34 4 14 21 10 2
6 30 28 28 22 0 0 0 0 0 0 0 0 0 0 0 0 0 0 0 0 0 3 1 0 0 0 0 0 0 0 0 0 0 2 5 5 6 17 55 40 11 33 3 7 15 18 7 1
37 27 0 0 0 0 0 0 0 0 0 0 0 0 0 0 0 0 0 0 0 0 3 5 1 4 1 20 18 5 2 4 0 0 5 0 2 5 5 7 23 27 14 14 17 1 6 0 0
21 12 0 0 0 0 0 0 0 0 0 0 0 0 0 0 0 0 0 0 0 2 5 3 4 4 9 11 14 9 10 17 11 7 0 1 1 3 3 5 4 5 4 35 27 0 0 0 0
3 72 0 1 0 0 0 1 8 0 0 0 0 0 0 0 0 0 0 0 8 6 3 9 4 4 7 7 3 8 6 8 22 19 17 2 0 1 3 5 5 5 7 3 32 16 1 0 0
17 0 0 20 0 0 0 0 0 0 0 0 0 0 0 0 0 0 0 2 3 6 11 7 9 5 6 9 8 6 9 10 11 10 9 3 1 1 0 0 0 5 15 21 37 18 6 4 0
0 0 0 14 0 0 0 0 5 0 0 0 0 0 0 0 0 0 0 3 5 9 5 4 9 10 7 11 7 6 11 1 4 2 0 1 2 3 3 2 0 0 0 7 12 35 26 17 8
0 0 12 0 0 5 0 0 0 0 0 0 0 0 0 0 0 0 0 1 5 8 11 6 5 18 20 40 16 17 8 22 9 13 0 4 5 3 5 2 0 0 0 0 0 0 1 6 10
CIN
0 0 0 0 0 0 0 0 0 0 0 0 0 0 0 -73 -69 -56 -66 -78 -117 -138 -112 -48 -5 0 0 0 0 0 0 0 0 -10 -57 -91 -182 -246 -263 0 0 -200 0 0 -324 0 0 0 0
0 0 0 0 0 0 0 0 0 0 0 0 0 0 0 -61 -97 -55 -66 -109 -105 -121 -143 -85 -7 0 0 0 0 0 -1 0 0 0 -6 -46 -249 0 0 0 0 -124 0 -110 -219 -19 -142 0 -3
0 0 0 0 0 0 0 0 0 0 0 0 0 0 0 -61 -67 -55 -83 -115 -85 -134 -125 -80 -15 0 0 0 0 0 0 0 -1 0 0 -17 -180 -305 0 0 0 -283 -220 -222 -330 -262 -266 -1 -1
0 0 0 0 0 0 0 0 0 0 0 0 0 0 -81 -76 -70 -87 -93 -99 -90 -125 -90 -78 -17 -4 0 0 0 0 0 0 0 0 0 -6 -90 -2 0 0 -2 -4 -1 -172 -2 -5 -3 -5 -3
0 0 0 0 0 0 0 0 0 0 0 0 0 0 -94 -78 -59 -74 -68 -72 -74 -82 -97 -79 -7 -3 0 0 0 0 0 0 0 0 0 0 -39 -12 -4 0 -2 -3 0 -1 -1 -2 -3 -8 0
0 0 0 0 0 0 0 0 0 0 0 0 0 0 0 -78 -51 -38 -31 -28 -41 -101 -96 -81 -36 -9 -2 -1 -1 -1 -1 -1 -1 -1 0 0 -26 -113 -4 0 -1 -2 -1 -1 -1 0 -5 -9 0
0 0 0 0 0 0 0 0 0 0 0 0 0 0 -137 -88 -74 -53 -17 -12 -15 -36 -33 -42 -55 -34 -26 -15 -7 -5 -4 -3 -3 -3 -3 -18 -68 -142 -2 0 0 0 -2 -1 -3 -2 -4 -11 -10
0 0 0 0 0 0 0 0 0 0 0 0 0 0 0 -167 -81 -60 -24 -5 -15 -7 -31 -21 -16 -25 -30 -36 -29 -25 -12 -9 -7 -10 -79 0 0 0 0 0 -2 -1 -5 -4 -4 -5 -7 -14 -19
0 0 0 0 0 0 0 0 0 0 0 0 0 0 0 -156 -103 -74 -45 -9 -23 -7 -17 -18 -9 -3 -9 -20 -32 -31 -18 -12 -12 -41 -8 0 0 0 0 -1 -6 -4 -6 -1 -3 -8 -19 -17 -35
0 0 0 0 0 0 0 0 0 0 0 0 0 0 -191 -166 -161 -136 -61 -27 -17 -5 -7 -17 -15 -5 -8 -3 -37 -30 -41 -20 -35 -69 -149 0 -2 0 0 0 0 -1 -3 -1 -4 -19 -23 0 -37
0 0 0 0 0 0 0 0 0 0 0 0 0 0 -177 -189 -168 -238 -255 -85 -22 -5 -7 -22 -42 -8 -22 -12 -16 -49 -29 -18 -64 -80 -195 0 0 0 0 0 0 0 -4 -2 -10 -44 -3 -15 -10
0 0 0 0 0 0 0 0 0 0 0 0 0 0 0 -273 -307 0 0 0 -234 -32 -1 -5 -13 -9 -25 -21 -30 -10 -4 -4 -87 -36 -147 -222 -16 0 0 0 0 0 0 0 -3 -19 0 0 0
0 0 0 0 0 0 0 0 0 0 0 0 0 0 0 0 0 0 0 0 0 -176 -36 -6 -6 -3 -6 -15 -34 -31 -18 -17 -6 -10 -133 -182 -186 0 0 0 0 0 0 0 0 -8 -11 -3 0
0 0 0 0 0 0 0 0 0 0 0 0 0 0 0 0 0 0 0 0 0 -43 -88 -8 -5 -5 -6 -2 -4 -10 -32 -27 -19 -26 -37 -81 -132 0 0 0 0 0 0 0 0 -15 0 -1 -11
0 0 0 0 0 0 0 0 0 0 0 0 0 0 0 0 0 0 0 0 0 0 0 -29 -182 -10 -4 -2 -6 -7 -9 -11 -22 -24 -31 -57 -110 -154 0 0 0 0 0 0 0 -5 -2 -4 -18
0 0 0 0 0 0 0 0 0 0 0 0 0 0 0 0 0 0 0 0 0 0 0 0 0 0 0 -175 -14 -9 -16 -13 -7 -16 -21 -21 -29 -80 -28 -20 -25 0 -3 0 0 0 0 -1 -5
0 0 0 0 0 0 0 0 0 0 0 0 0 0 0 0 0 0 0 0 0 0 0 0 0 0 0 0 -65 -46 -27 -31 -12 -3 -16 -16 -20 -6 -48 -35 -45 -12 -27 -1 -1 0 0 0 -12
0 0 0 0 0 0 0 0 0 0 0 0 0 0 0 0 0 0 0 0 0 0 0 0 0 0 0 0 -287 -230 -254 -162 -9 0 -6 -12 -12 -33 -2 -43 -21 -10 -1 -11 -1 0 0 0 -9
0 0 0 0 0 0 0 0 0 0 0 0 0 0 0 0 0 0 0 0 0 0 0 0 0 0 0 0 -375 -1 0 -2 -8 0 -9 0 -1 -7 -1 0 -50 -1 0 0 0 -2 -4 0 0
0 0 0 0 0 0 0 0 0 0 0 0 0 0 0 0 0 0 0 0 0 0 0 0 0 0 0 0 0 0 0 0 -145 -76 0 0 -4 -19 -36 -27 0 -4 -1 0 -1 -4 -9 -25 0
0 0 0 0 0 0 0 0 0 0 0 0 0 0 0 0 0 0 0 0 0 0 0 0 0 0 0 0 0 0 0 -1 0 -4 -16 -5 -32 -25 0 -26 -5 0 -1 -4 0 0 -8 -1 -1
0 0 0 0 0 0 0 0 0 0 0 0 0 0 0 0 0 0 0 0 0 0 0 0 0 0 0 0 0 0 0 0 0 -1 -4 0 -4 -38 -29 -24 -40 -2 0 0 -6 -1 0 -3 0
0 -1 0 -2 0 0 0 0 0 0 0 0 0 0 0 0 0 0 0 0 0 0 0 0 0 0 0 0 0 0 0 0 0 0 -4 0 0 -9 0 -29 -24 0 0 0 -9 -6 0 -1 -4
-2 -1 -3 -3 -9 0 0 0 0 0 0 0 0 0 0 0 0 0 0 0 0 0 0 0 0 0 0 0 0 0 0 0 0 0 0 0 0 -7 -1 -53 0 -5 0 0 0 0 0 -6 0
-3 -2 0 0 0 0 0 0 0 0 0 0 0 0 0 0 0 0 0 0 0 0 0 0 0 -1 -2 -6 -4 -3 -1 0 0 0 0 0 -1 0 0 0 -2 -1 0 0 0 0 -7 0 0
-7 -8 0 0 0 0 0 0 0 0 0 0 0 0 0 0 0 0 0 0 0 0 0 0 0 0 0 -1 0 0 -1 0 -1 -2 0 -1 -1 -10 0 0 0 0 0 -2 -2 0 0 0 0
-7 0 0 -1 0 0 0 -3 -11 0 0 0 0 0 0 0 0 0 0 0 0 0 0 0 0 0 0 0 0 -2 0 0 -4 -1 -3 -1 0 0 0 0 0 0 0 0 0 0 0 0 0
-9 0 0 -8 0 0 0 0 0 0 0 0 0 0 0 0 0 0 0 0 0 0 0 0 0 0 0 0 0 0 0 0 0 0 0 0 -1 -1 -1 0 0 0 -5 -3 0 0 0 0 0
0 0 0 -5 -1 0 0 0 -7 0 0 0 0 0 0 0 0 0 0 0 0 0 0 0 0 0 0 0 0 0 0 0 0 0 0 0 0 0 -3 0 0 0 0 -2 0 0 0 -7 -37
0 0 -4 0 -1 -1 0 0 0 0 0 0 0 0 0 0 0 0 0 0 0 0 0 0 0 0 0 0 0 0 0 0 -5 -16 -1 -11 0 0 0 0 0 0 0 0 0 0 0 0 0
Wind_Speed
nan nan nan nan nan nan nan nan nan nan nan nan nan nan nan 29 25 21 18 25 31 24 21 17 18 16 15 14 13 13 13 13 12 12 11 12 13 nan nan nan nan nan nan nan nan nan nan nan nan
nan nan nan nan nan nan nan nan nan nan nan nan nan nan nan 26 27 25 23 26 28 25 21 19 18 17 17 15 16 15 13 14 16 16 14 15 nan nan nan nan nan nan nan nan 16 nan nan nan nan
nan nan nan nan nan nan nan nan nan nan nan nan nan nan nan 20 27 20 24 25 26 26 20 21 20 19 19 18 17 16 15 13 15 16 17 18 20 nan nan nan nan nan nan nan nan nan nan nan nan
nan nan nan nan nan nan nan nan nan nan nan nan nan nan nan 24 20 22 19 22 24 24 23 23 21 22 22 20 18 18 17 15 14 13 18 20 22 nan nan nan nan nan nan nan nan nan nan nan nan
nan nan nan nan nan nan nan nan nan nan nan nan nan nan nan 23 29 21 16 18 19 20 27 24 23 23 23 22 20 19 18 17 16 16 17 20 22 nan nan nan nan nan nan nan nan nan nan nan nan
nan nan nan nan nan nan nan nan nan nan nan nan nan nan nan 23 23 19 15 15 14 21 19 19 23 24 24 22 21 21 20 18 17 18 18 18 22 28 nan nan nan nan nan nan nan nan nan nan nan
nan nan nan nan nan nan nan nan nan nan nan nan nan nan nan 22 24 20 16 17 14 16 15 11 11 16 20 23 23 20 21 21 19 19 22 23 23 nan nan nan nan nan nan nan nan nan nan nan nan
nan nan nan nan nan nan nan nan nan nan nan nan nan nan nan 24 28 22 22 20 19 16 15 11 9 9 10 12 17 20 21 21 23 25 27 nan nan nan nan nan nan nan nan nan nan nan nan nan nan
nan nan nan nan nan nan nan nan nan nan nan nan nan nan nan 34 33 28 24 22 22 17 14 12 12 10 9 9 10 13 17 22 25 29 nan nan nan nan nan nan nan nan nan nan nan nan nan nan nan
nan nan nan nan nan nan nan nan nan nan nan nan nan nan 38 37 34 29 26 24 23 19 15 17 15 14 12 10 12 11 13 14 21 nan nan nan nan nan nan nan nan nan nan nan nan nan nan nan nan
nan nan nan nan nan nan nan nan nan nan nan nan nan nan nan 36 34 33 nan 27 25 21 18 20 19 18 17 15 14 12 13 14 13 nan nan nan nan nan nan nan nan nan nan nan nan nan nan nan nan
nan nan nan nan nan nan nan nan nan nan nan nan nan nan nan nan nan nan nan nan nan 25 22 20 22 20 20 20 19 15 16 15 16 18 nan nan nan nan nan nan nan nan nan nan nan nan nan nan nan
nan nan nan nan nan nan nan nan nan nan nan nan nan nan nan nan nan nan nan nan nan 29 27 25 24 23 23 22 21 21 21 19 18 21 nan nan nan nan nan nan nan nan nan nan nan nan nan nan nan
nan nan nan nan nan nan nan nan nan nan nan nan nan nan nan nan nan nan nan nan nan nan 34 31 28 25 24 23 23 24 25 25 24 22 20 nan nan nan nan nan nan nan nan nan nan nan nan nan nan
nan nan nan nan nan nan nan nan nan nan nan nan nan nan nan nan nan nan nan nan nan nan nan nan 32 29 27 27 26 26 28 29 28 28 23 nan nan nan nan nan nan nan nan nan nan nan nan nan nan
nan nan nan nan nan nan nan nan nan nan nan nan nan nan nan nan nan nan nan nan nan nan nan nan nan nan nan 30 31 31 30 31 32 31 29 26 28 nan nan nan nan nan nan nan nan nan nan nan nan
nan nan nan nan nan nan nan nan nan nan nan nan nan nan nan nan nan nan nan nan nan nan nan nan nan nan nan nan 34 35 33 34 32 34 32 29 32 31 nan nan nan nan nan nan nan nan nan nan nan
nan nan nan nan nan nan nan nan nan nan nan nan nan nan nan nan nan nan nan nan nan nan nan nan nan nan nan nan nan nan nan nan 36 35 36 34 33 35 35 nan nan nan nan nan nan nan nan nan nan
nan nan nan nan nan nan nan nan nan nan nan nan nan nan nan nan nan nan nan nan nan nan nan nan nan nan nan nan nan nan nan nan 38 40 41 40 40 38 36 nan nan nan nan nan nan nan nan nan nan
nan nan nan nan nan nan nan nan nan nan nan nan nan nan nan nan nan nan nan nan nan nan nan nan nan nan nan nan nan nan nan nan nan nan 44 42 42 39 nan nan nan nan nan nan nan nan nan nan nan
nan nan nan nan nan nan nan nan nan nan nan nan nan nan nan nan nan nan nan nan nan nan nan nan nan nan nan nan nan nan nan nan nan nan 44 44 nan 44 nan nan 40 nan nan nan nan nan nan nan nan
nan nan nan nan nan nan nan nan nan nan nan nan nan nan nan nan nan nan nan nan nan nan nan nan nan nan nan nan nan nan nan nan nan nan nan nan nan nan nan nan nan nan nan nan nan nan nan nan nan
nan nan nan nan nan nan nan nan nan nan nan nan nan nan nan nan nan nan nan nan nan nan nan nan nan nan nan nan nan nan nan nan nan nan nan nan nan nan nan 46 nan nan nan nan nan nan nan nan nan
nan nan nan nan nan nan nan nan nan nan nan nan nan nan nan nan nan nan nan nan nan nan nan nan nan nan nan nan nan nan nan nan nan nan nan nan nan nan nan nan nan nan nan nan nan nan nan nan nan
nan nan nan nan nan nan nan nan nan nan nan nan nan nan nan nan nan nan nan nan nan nan nan nan nan nan nan nan nan nan nan nan nan nan nan nan nan nan nan nan nan nan nan nan nan nan nan nan nan
nan nan nan nan nan nan nan nan nan nan nan nan nan nan nan nan nan nan nan nan nan nan nan nan nan nan nan nan nan nan nan nan nan nan nan nan nan nan nan nan nan nan nan nan nan nan nan nan nan
nan nan nan nan nan nan nan nan nan nan nan nan nan nan nan nan nan nan nan nan nan nan nan nan nan nan nan nan nan nan nan nan nan nan nan nan nan nan nan nan nan nan nan nan nan nan nan nan nan
nan nan nan nan nan nan nan nan nan nan nan nan nan nan nan nan nan nan nan nan nan nan nan nan nan nan nan nan nan nan nan nan nan nan nan nan nan nan nan nan nan nan nan nan nan nan nan nan nan
nan nan nan nan nan nan nan nan nan nan nan nan nan nan nan nan nan nan nan nan nan nan nan nan nan nan nan nan nan nan nan nan nan nan nan nan nan nan nan nan nan nan nan nan nan nan nan nan nan
nan nan nan nan nan nan nan nan nan nan nan nan nan nan nan nan nan nan nan nan nan nan nan nan nan nan nan nan nan nan nan nan nan nan nan nan nan nan nan nan nan nan nan nan nan nan nan nan nan
Wind_Direction
nan nan nan nan nan nan nan nan nan nan nan nan nan nan nan 228 229 251 258 247 266 264 265 265 270 272 279 288 288 276 254 246 244 245 242 239 232 nan nan nan nan nan nan nan nan nan nan nan nan
nan nan nan nan nan nan nan nan nan nan nan nan nan nan nan 242 241 253 243 259 270 262 259 261 268 269 269 273 276 277 269 256 248 249 250 255 nan nan nan nan nan nan nan nan 232 nan nan nan nan
nan nan nan nan nan nan nan nan nan nan nan nan nan nan nan 245 268 252 254 261 262 263 259 257 265 263 260 267 272 273 274 269 261 255 249 257 253 nan nan nan nan nan nan nan nan nan nan nan nan
nan nan nan nan nan nan nan nan nan nan nan nan nan nan nan 205 242 249 252 257 252 263 259 261 261 262 258 257 264 269 268 269 273 260 251 257 255 nan nan nan nan nan nan nan nan nan nan nan nan
nan nan nan nan nan nan nan nan nan nan nan nan nan nan nan 224 244 253 247 254 244 252 259 258 260 259 260 259 257 262 263 262 262 263 264 267 260 nan nan nan nan nan nan nan nan nan nan nan nan
nan nan nan nan nan nan nan nan nan nan nan nan nan nan nan 245 241 244 240 239 236 250 256 257 261 257 259 258 254 251 251 255 257 262 273 266 261 250 nan nan nan nan nan nan nan nan nan nan nan
nan nan nan nan nan nan nan nan nan nan nan nan nan nan nan 244 243 237 233 236 231 260 257 256 258 261 261 262 259 254 249 248 253 259 267 261 254 nan nan nan nan nan nan nan nan nan nan nan nan
nan nan nan nan nan nan nan nan nan nan nan nan nan nan nan 236 245 237 235 233 234 232 262 266 257 257 253 254 266 261 253 253 252 254 252 nan nan nan nan nan nan nan nan nan nan nan nan nan nan
nan nan nan nan nan nan nan nan nan nan nan nan nan nan nan 256 242 235 237 236 236 225 261 269 272 273 268 265 269 273 268 257 253 253 nan nan nan nan nan nan nan nan nan nan nan nan nan nan nan
nan nan nan nan nan nan nan nan nan nan nan nan nan nan 246 249 243 241 240 242 243 241 230 261 272 280 278 271 269 265 266 253 249 nan nan nan nan nan nan nan nan nan nan nan nan nan nan nan nan
nan nan nan nan nan nan nan nan nan nan nan nan nan nan nan 251 245 243 nan 244 247 252 238 247 258 266 280 272 264 264 260 260 250 nan nan nan nan nan nan nan nan nan nan nan nan nan nan nan nan
nan nan nan nan nan nan nan nan nan nan nan nan nan nan nan nan nan nan nan nan nan 252 252 248 256 256 266 264 274 270 271 269 261 259 nan nan nan nan nan nan nan nan nan nan nan nan nan nan nan
nan nan nan nan nan nan nan nan nan nan nan nan nan nan nan nan nan nan nan nan nan 249 252 254 249 252 259 266 271 280 277 273 267 269 nan nan nan nan nan nan nan nan nan nan nan nan nan nan nan
nan nan nan nan nan nan nan nan nan nan nan nan nan nan nan nan nan nan nan nan nan nan 247 250 253 252 256 258 268 273 279 281 275 270 268 nan nan nan nan nan nan nan nan nan nan nan nan nan nan
nan nan nan nan nan nan nan nan nan nan nan nan nan nan nan nan nan nan nan nan nan nan nan nan 250 250 253 258 263 262 269 276 276 275 271 nan nan nan nan nan nan nan nan nan nan nan nan nan nan
nan nan nan nan nan nan nan nan nan nan nan nan nan nan nan nan nan nan nan nan nan nan nan nan nan nan nan 260 263 263 265 267 272 272 274 272 266 nan nan nan nan nan nan nan nan nan nan nan nan
nan nan nan nan nan nan nan nan nan nan nan nan nan nan nan nan nan nan nan nan nan nan nan nan nan nan nan nan 263 267 269 267 268 271 271 273 271 266 nan nan nan nan nan nan nan nan nan nan nan
nan nan nan nan nan nan nan nan nan nan nan nan nan nan nan nan nan nan nan nan nan nan nan nan nan nan nan nan nan nan nan nan 265 264 266 275 272 272 261 nan nan nan nan nan nan nan nan nan nan
nan nan nan nan nan nan nan nan nan nan nan nan nan nan nan nan nan nan nan nan nan nan nan nan nan nan nan nan nan nan nan nan 263 263 265 265 265 268 266 nan nan nan nan nan nan nan nan nan nan
nan nan nan nan nan nan nan nan nan nan nan nan nan nan nan nan nan nan nan nan nan nan nan nan nan nan nan nan nan nan nan nan nan nan 263 266 268 270 nan nan nan nan nan nan nan nan nan nan nan
nan nan nan nan nan nan nan nan nan nan nan nan nan nan nan nan nan nan nan nan nan nan nan nan nan nan nan nan nan nan nan nan nan nan 260 261 nan 266 nan nan 263 nan nan nan nan nan nan nan nan
nan nan nan nan nan nan nan nan nan nan nan nan nan nan nan nan nan nan nan nan nan nan nan nan nan nan nan nan nan nan nan nan nan nan nan nan nan nan nan nan nan nan nan nan nan nan nan nan nan
nan nan nan nan nan nan nan nan nan nan nan nan nan nan nan nan nan nan nan nan nan nan nan nan nan nan nan nan nan nan nan nan nan nan nan nan nan nan nan 268 nan nan nan nan nan nan nan nan nan
nan nan nan nan nan nan nan nan nan nan nan nan nan nan nan nan nan nan nan nan nan nan nan nan nan nan nan nan nan nan nan nan nan nan nan nan nan nan nan nan nan nan nan nan nan nan nan nan nan
nan nan nan nan nan nan nan nan nan nan nan nan nan nan nan nan nan nan nan nan nan nan nan nan nan nan nan nan nan nan nan nan nan nan nan nan nan nan nan nan nan nan nan nan nan nan nan nan nan
nan nan nan nan nan nan nan nan nan nan nan nan nan nan nan nan nan nan nan nan nan nan nan nan nan nan nan nan nan nan nan nan nan nan nan nan nan nan nan nan nan nan nan nan nan nan nan nan nan
nan nan nan nan nan nan nan nan nan nan nan nan nan nan nan nan nan nan nan nan nan nan nan nan nan nan nan nan nan nan nan nan nan nan nan nan nan nan nan nan nan nan nan nan nan nan nan nan nan
nan nan nan nan nan nan nan nan nan nan nan nan nan nan nan nan nan nan nan nan nan nan nan nan nan nan nan nan nan nan nan nan nan nan nan nan nan nan nan nan nan nan nan nan nan nan nan nan nan
nan nan nan nan nan nan nan nan nan nan nan nan nan nan nan nan nan nan nan nan nan nan nan nan nan nan nan nan nan nan nan nan nan nan nan nan nan nan nan nan nan nan nan nan nan nan nan nan nan
nan nan nan nan nan nan nan nan nan nan nan nan nan nan nan nan nan nan nan nan nan nan nan nan nan nan nan nan nan nan nan nan nan nan nan nan nan nan nan nan nan nan nan nan nan nan nan nan nan